Regional Weather Roundup
Issued by NWS

Home | Current Version | Previous Version | Graphics & Text | Print | Product List | Glossary On
Versions: 1 2 3 4 5 6 7 8 9 10 11 12 13 14 15 16 17 18 19 20 21 22 23 24 25 26 27 28 29 30 31 32 33 34 35 36 37 38 39 40 41 42 43 44 45 46 47 48 49 50
000
ASUS43 KFSD 271202
RWRSD

WEATHER ROUNDUP FOR SOUTH DAKOTA
NATIONAL WEATHER SERVICE SIOUX FALLS SD
700 AM CDT WED JUL 27 2016

NOTE: "FAIR" INDICATES FEW OR NO CLOUDS BELOW 12,000 FEET WITH NO
SIGNIFICANT WEATHER AND/OR OBSTRUCTIONS TO VISIBILITY.


SDZ001>005-009-010-012>017-271300-
NORTHWEST AND NORTH CENTRAL SOUTH DAKOTA

CITY           SKY/WX    TMP DP  RH WIND       PRES   REMARKS
BUFFALO          N/A     61  60  97 NE6       30.06R
FAITH            N/A     62  60  93 NE5       30.10R
MOBRIDGE       CLOUDY    67  62  84 N3        30.03S
$$

SDZ012>016-024>037-041>051-057-063-072>074-271300-
SOUTHWEST AND SOUTH CENTRAL SOUTH DAKOTA

CITY           SKY/WX    TMP DP  RH WIND       PRES   REMARKS
RAPID CTY ARPT CLOUDY    63  61  93 N6        30.12F
PIERRE         MOCLDY    63  61  93 NW5       30.02R
CUSTER         LGT RAIN  61  56  83 SW7       30.24R
ELLSWORTH AFB  CLOUDY    64  63  96 N1        30.13
PHILIP         PTCLDY    66  64  93 W6        30.06S
PINE RIDGE     CLOUDY    62  60  93 CALM      30.10R
WINNER         FAIR      63  58  83 W12       30.03S
$$

SDZ004>011-016>023-039-040-271300-
NORTHEAST SOUTH DAKOTA

CITY           SKY/WX    TMP DP  RH WIND       PRES   REMARKS
ABERDEEN       CLOUDY    66  64  93 N7        30.01S
WATERTOWN      PTCLDY    65  62  90 CALM      29.99S
BROOKINGS      CLOUDY    66  65  96 NW7       29.98  FOG
SISSETON         N/A     65  64  97 N9        29.98R
$$

SDZ017-020-022-023-036>040-048>070-271300-
SOUTHEAST SOUTH DAKOTA

CITY           SKY/WX    TMP DP  RH WIND       PRES   REMARKS
SIOUX FALLS    CLOUDY    72  64  76 NW14      29.97R
HURON          MOCLDY    65  63  93 NW3       29.98R
CHAMBERLAIN    CLEAR     65  62  89 CALM      30.01F
MITCHELL       PTCLDY    68  62  81 NW10      29.98S
YANKTON        CLOUDY    66  61  82 NW6       29.96R
$$

ABBREVIATIONS USED IN REMARKS
   TC - TEMPERATURE IN CELSIUS
  WCI - WIND CHILL INDEX
   HX - HEAT INDEX
  VSB - VISIBILITY




USA.gov is the U.S. government's official web portal to all federal, state and local government web resources and services.